• In Hungary
  • List of Countries
  • For 7 days
  • Water Temperature
  • Satellite Maps
  • Weather Map
  • News
  • Weather Widgets
  • user-avatar
    Login

    Hourly Weather Bamako

    Today, 26 September, Wednesday

    Time Temperature Precipitation Wind Pressure Humidity
    00:00 +28°C° 0.1 mm 2 mps 724 mmHg 70%
    01:00 +28°C° 0.1 mm 2 mps 723 mmHg 74%
    02:00 +27°C° 0.1 mm 2 mps 723 mmHg 77%
    03:00 +26°C° 0.1 mm 2 mps 723 mmHg 79%
    04:00 +26°C° 0.1 mm 2 mps 723 mmHg 82%
    05:00 +26°C° 0.1 mm 2 mps 723 mmHg 84%
    06:00 +27°C° 0 mm 2 mps 724 mmHg 79%
    07:00 +29°C° 0 mm 2 mps 724 mmHg 74%
    08:00 +30°C° 0 mm 2 mps 724 mmHg 69%
    09:00 +32°C° 0 mm 2 mps 724 mmHg 62%
    10:00 +35°C° 0 mm 3 mps 724 mmHg 55%
    11:00 +37°C° 0 mm 3 mps 724 mmHg 49%
    12:00 +37°C° 0 mm 3 mps 723 mmHg 45%
    13:00 +38°C° 0 mm 2 mps 722 mmHg 41%
    14:00 +39°C° 0 mm 2 mps 722 mmHg 38%
    15:00 +37°C° 0 mm 2 mps 722 mmHg 42%
    16:00 +36°C° 0 mm 2 mps 722 mmHg 47%
    17:00 +34°C° 0 mm 1 mps 722 mmHg 51%
    18:00 +32°C° 0.7 mm 1 mps 722 mmHg 56%
    19:00 +31°C° 0.7 mm 2 mps 723 mmHg 61%
    20:00 +30°C° 0.7 mm 2 mps 723 mmHg 66%
    21:00 +29°C° 1 mm 2 mps 723 mmHg 70%
    22:00 +28°C° 1 mm 1 mps 723 mmHg 73%
    23:00 +28°C° 1 mm 1 mps 724 mmHg 77%

    Tomorrow, 27 September, Thursday

    Time Temperature Precipitation Wind Pressure Humidity
    00:00 +27°C° 0 mm 1 mps 723 mmHg 78%
    01:00 +27°C° 0 mm 1 mps 723 mmHg 79%
    02:00 +27°C° 0 mm 1 mps 723 mmHg 79%
    03:00 +27°C° 0 mm 1 mps 723 mmHg 80%
    04:00 +26°C° 0 mm 1 mps 723 mmHg 81%
    05:00 +26°C° 0 mm 1 mps 723 mmHg 82%
    06:00 +27°C° 0.2 mm 1 mps 723 mmHg 80%
    07:00 +28°C° 0.2 mm 1 mps 724 mmHg 78%
    08:00 +29°C° 0.2 mm 1 mps 725 mmHg 75%
    09:00 +31°C° 0 mm 1 mps 724 mmHg 68%
    10:00 +32°C° 0 mm 2 mps 724 mmHg 61%
    11:00 +35°C° 0 mm 2 mps 724 mmHg 53%
    12:00 +35°C° 0 mm 2 mps 724 mmHg 52%
    13:00 +35°C° 0 mm 3 mps 723 mmHg 50%
    14:00 +36°C° 0 mm 3 mps 722 mmHg 48%
    15:00 +35°C° 0 mm 2 mps 722 mmHg 53%
    16:00 +32°C° 0 mm 2 mps 722 mmHg 59%
    17:00 +31°C° 0 mm 1 mps 722 mmHg 64%
    18:00 +30°C° 0 mm 1 mps 723 mmHg 65%
    19:00 +30°C° 0 mm 1 mps 724 mmHg 67%
    20:00 +29°C° 0 mm 1 mps 724 mmHg 68%
    21:00 +29°C° 0 mm 2 mps 724 mmHg 70%
    22:00 +28°C° 0 mm 2 mps 724 mmHg 72%
    23:00 +28°C° 0 mm 2 mps 724 mmHg 74%

    Day after tomorrow, 28 September, Friday

    Time Temperature Precipitation Wind Pressure Humidity
    00:00 +28°C° 0 mm 2 mps 724 mmHg 76%
    01:00 +27°C° 0 mm 2 mps 723 mmHg 77%
    02:00 +27°C° 0 mm 2 mps 723 mmHg 79%
    03:00 +27°C° 0 mm 1 mps 723 mmHg 81%
    04:00 +26°C° 0 mm 1 mps 723 mmHg 82%
    05:00 +26°C° 0 mm 1 mps 723 mmHg 84%
    06:00 +27°C° 0 mm 2 mps 724 mmHg 79%
    07:00 +28°C° 0 mm 3 mps 724 mmHg 74%
    08:00 +30°C° 0 mm 4 mps 725 mmHg 70%
    09:00 +32°C° 0 mm 4 mps 725 mmHg 62%
    10:00 +34°C° 0 mm 4 mps 725 mmHg 55%
    11:00 +35°C° 0 mm 4 mps 724 mmHg 48%
    12:00 +36°C° 0 mm 4 mps 724 mmHg 46%
    13:00 +36°C° 0 mm 4 mps 723 mmHg 44%
    14:00 +37°C° 0 mm 3 mps 723 mmHg 42%
    15:00 +35°C° 0 mm 3 mps 722 mmHg 47%
    16:00 +34°C° 0 mm 2 mps 722 mmHg 52%
    17:00 +32°C° 0 mm 2 mps 722 mmHg 57%
    18:00 +31°C° 0 mm 2 mps 723 mmHg 59%
    19:00 +30°C° 0 mm 2 mps 723 mmHg 61%
    20:00 +29°C° 0 mm 2 mps 724 mmHg 63%
    21:00 +29°C° 0 mm 2 mps 724 mmHg 67%
    22:00 +28°C° 0 mm 3 mps 724 mmHg 71%
    23:00 +27°C° 0 mm 3 mps 724 mmHg 76%

    29 September, Saturday

    Time Temperature Precipitation Wind Pressure Humidity
    00:00 +27°C° 0 mm 3 mps 723 mmHg 78%
    01:00 +26°C° 0 mm 2 mps 723 mmHg 81%
    02:00 +25°C° 0 mm 2 mps 722 mmHg 83%
    03:00 +25°C° 0.1 mm 2 mps 723 mmHg 83%
    04:00 +25°C° 0.1 mm 2 mps 723 mmHg 83%
    05:00 +24°C° 0.1 mm 1 mps 724 mmHg 83%
    06:00 +25°C° 0.1 mm 2 mps 724 mmHg 78%
    07:00 +27°C° 0.1 mm 2 mps 725 mmHg 73%
    08:00 +28°C° 0.1 mm 2 mps 726 mmHg 68%
    09:00 +30°C° 0 mm 2 mps 726 mmHg 61%
    10:00 +32°C° 0 mm 1 mps 725 mmHg 54%
    11:00 +34°C° 0 mm 1 mps 725 mmHg 47%
    12:00 +34°C° 0 mm 1 mps 724 mmHg 44%
    13:00 +35°C° 0 mm 1 mps 724 mmHg 41%
    14:00 +36°C° 0 mm 1 mps 723 mmHg 38%
    15:00 +35°C° 0 mm 1 mps 723 mmHg 43%
    16:00 +33°C° 0 mm 1 mps 723 mmHg 47%
    17:00 +32°C° 0 mm 1 mps 723 mmHg 51%
    18:00 +31°C° 0 mm 1 mps 723 mmHg 52%
    19:00 +29°C° 0 mm 0 mps 724 mmHg 53%
    20:00 +28°C° 0 mm 0 mps 724 mmHg 55%
    21:00 +27°C° 0 mm 0 mps 724 mmHg 57%
    22:00 +29°C° 0 mm 1 mps 724 mmHg 58%
    23:00 +28°C° 0 mm 1 mps 724 mmHg 60%

    30 September, Sunday

    Time Temperature Precipitation Wind Pressure Humidity
    00:00 +27°C° 0.3 mm 1 mps 723 mmHg 65%
    01:00 +27°C° 0.3 mm 1 mps 723 mmHg 70%
    02:00 +26°C° 0.3 mm 2 mps 723 mmHg 74%
    03:00 +26°C° 0.1 mm 1 mps 723 mmHg 76%
    04:00 +26°C° 0.1 mm 1 mps 723 mmHg 77%
    05:00 +26°C° 0.1 mm 1 mps 724 mmHg 79%
    06:00 +27°C° 0.1 mm 1 mps 724 mmHg 75%
    07:00 +28°C° 0.1 mm 1 mps 725 mmHg 71%
    08:00 +29°C° 0.1 mm 1 mps 725 mmHg 67%
    09:00 +31°C° 0.1 mm 2 mps 725 mmHg 60%
    10:00 +34°C° 0.1 mm 2 mps 725 mmHg 53%
    11:00 +35°C° 0.1 mm 3 mps 725 mmHg 47%
    12:00 +36°C° 0 mm 3 mps 724 mmHg 45%
    13:00 +36°C° 0 mm 3 mps 723 mmHg 43%
    14:00 +36°C° 0 mm 2 mps 723 mmHg 42%
    15:00 +35°C° 0 mm 2 mps 723 mmHg 46%
    16:00 +34°C° 0 mm 2 mps 723 mmHg 51%
    17:00 +32°C° 0 mm 1 mps 723 mmHg 55%
    18:00 +31°C° 0 mm 1 mps 723 mmHg 55%
    19:00 +31°C° 0 mm 1 mps 724 mmHg 56%
    20:00 +30°C° 0 mm 1 mps 724 mmHg 56%
    21:00 +29°C° 0 mm 1 mps 724 mmHg 58%
    22:00 +29°C° 0 mm 1 mps 724 mmHg 60%
    23:00 +28°C° 0 mm 2 mps 724 mmHg 62%

    1 October, Monday

    Time Temperature Precipitation Wind Pressure Humidity
    00:00 +28°C° 0 mm 2 mps 723 mmHg 65%
    01:00 +27°C° 0 mm 2 mps 723 mmHg 69%
    02:00 +27°C° 0 mm 2 mps 723 mmHg 73%
    03:00 +26°C° 0 mm 2 mps 723 mmHg 74%
    04:00 +26°C° 0 mm 2 mps 723 mmHg 74%
    05:00 +26°C° 0 mm 2 mps 723 mmHg 75%
    06:00 +27°C° 0 mm 2 mps 724 mmHg 71%
    07:00 +28°C° 0 mm 2 mps 724 mmHg 66%
    08:00 +30°C° 0 mm 2 mps 725 mmHg 61%
    09:00 +31°C° 0 mm 2 mps 725 mmHg 56%
    10:00 +32°C° 0 mm 2 mps 724 mmHg 52%
    11:00 +34°C° 0 mm 2 mps 724 mmHg 47%
    12:00 +35°C° 0 mm 2 mps 723 mmHg 44%
    13:00 +36°C° 0 mm 2 mps 723 mmHg 41%
    14:00 +37°C° 0 mm 2 mps 722 mmHg 37%
    15:00 +35°C° 0 mm 2 mps 722 mmHg 42%
    16:00 +34°C° 0 mm 2 mps 722 mmHg 47%
    17:00 +32°C° 0 mm 2 mps 722 mmHg 52%
    18:00 +31°C° 0 mm 2 mps 723 mmHg 56%
    19:00 +30°C° 0 mm 2 mps 723 mmHg 60%
    20:00 +29°C° 0 mm 2 mps 723 mmHg 65%
    21:00 +28°C° 0 mm 2 mps 723 mmHg 68%
    22:00 +28°C° 0 mm 2 mps 723 mmHg 71%
    23:00 +27°C° 0 mm 2 mps 723 mmHg 74%
    Show more